This is the latest recevied weather packets stored in our database for station/object WZ9ZZZ-1. If no packets are shown the sender has not sent any weather packets the latest 10 day(s).
| Time | Temp. | Humidity | Pressure | Rain* | Wind** | Luminosity | Snow |
|---|---|---|---|---|---|---|---|
| 1777996747 | 25.56° C | 84% | 1013.6 hPa | 0 mm | - | 107 W/m² | - |
| 1777996443 | 25.56° C | 83% | 1013.4 hPa | 0 mm | - | 89 W/m² | - |
| 1777996140 | 25.56° C | 83% | 1013.6 hPa | 0 mm | - | 94 W/m² | - |
| 1777995836 | 25.56° C | 83% | 1013.6 hPa | 0 mm | - | 93 W/m² | - |
| 1777995532 | 25.56° C | 84% | 1013.4 hPa | 0 mm | - | 105 W/m² | - |
| 1777995229 | 25.56° C | 84% | 1013.3 hPa | 0 mm | - | 167 W/m² | - |
| 1777994926 | 25.56° C | 84% | 1013.3 hPa | 0 mm | - | 51 W/m² | - |
| 1777994619 | 25.56° C | 85% | 1013.4 hPa | 0 mm | - | 143 W/m² | - |
| 1777994318 | 25° C | 86% | 1013.2 hPa | 0 mm | - | 149 W/m² | - |
| 1777994015 | 25° C | 88% | 1013.3 hPa | 0 mm | - | 203 W/m² | - |
| 1777993712 | 25° C | 90% | 1013.1 hPa | 0 mm | - | 606 W/m² | - |
| 1777993409 | 24.44° C | 90% | 1013.2 hPa | 0 mm | - | 476 W/m² | - |
| 1777993103 | 24.44° C | 91% | 1013 hPa | 0 mm | - | 262 W/m² | - |
| 1777992802 | 23.89° C | 91% | 1013.3 hPa | 0 mm | - | 131 W/m² | - |
| 1777992499 | 24.44° C | 90% | 1013.4 hPa | 0 mm | - | 52 W/m² | - |
| 1777992198 | 24.44° C | 90% | 1013.4 hPa | 0 mm | - | 28 W/m² | - |
| 1777991894 | 24.44° C | 89% | 1013.5 hPa | 0 mm | - | 35 W/m² | - |
| 1777991592 | 24.44° C | 88% | 1013.5 hPa | 0 mm | - | 24 W/m² | - |
| 1777991289 | 24.44° C | 87% | 1013.4 hPa | 0 mm | - | 21 W/m² | - |
| 1777990986 | 24.44° C | 87% | 1013.3 hPa | 0 mm | - | 24 W/m² | - |
| 1777990683 | 24.44° C | 87% | 1013.3 hPa | 0 mm | - | 41 W/m² | - |
| 1777990381 | 24.44° C | 87% | 1013.3 hPa | 0 mm | - | 41 W/m² | - |
| 1777990076 | 24.44° C | 87% | 1013.3 hPa | 0 mm | - | 45 W/m² | - |
| 1777989773 | 24.44° C | 87% | 1013.5 hPa | 0 mm | - | 32 W/m² | - |
| 1777989470 | 24.44° C | 87% | 1013.4 hPa | 0 mm | - | 32 W/m² | - |
* Rain latest hour (hover to see other rain measurements)
** Current wind speed in m/s (hover to see current wind gust speed)